[[{"header":{"parameterUnit":"m.s-1","parameterCategory":1,"la1":30.2991,"la2":30.254,"lo1":-89.0895,"lo2":-89.0444,"dy":0.0017,"dx":0.0017,"nx":28,"ny":28,"refTime":"2023-08-11T09:00:00:Z","depth":0,"parameterNumber":2,"parameterNumberName":"U-component_of_WINDS"},"data":[0,0,0,0,0,0,0,0,0,0,0,0,0,0,0,0,0,0,0,0,0,0,0,0,0,0,0,0,0,0,0,0,0,0,0,0,0,0,0,0,0,0,0,0,0,0,0,0,0,0,0,0,0,0,0,0,0,0,4.582,4.5821,0,4.5945,4.5946,4.5948,4.5893,4.589,4.5887,4.5884,4.6013,4.602,4.6026,0,0,0,0,0,0,0,0,0,0,0,0,0,4.5535,4.554,4.582,4.5821,4.5823,4.5945,4.5946,4.5948,4.5893,4.589,4.5886,4.5882,4.6011,4.6019,4.6026,0,0,0,0,0,0,0,0,0,0,0,0,0,4.5659,4.5542,4.582,4.581,4.5811,4.5944,4.5946,4.5948,4.5894,4.5889,4.5885,4.5881,4.6009,4.6018,4.6027,4.6178,0,0,4.6056,4.6061,0,0,0,0,0,0,0,0,4.5652,4.567,4.581,4.5811,4.5812,4.5898,4.5893,4.6026,4.5895,4.5862,4.5884,4.5878,4.5979,4.5991,4.6024,4.6184,4.619,4.6057,4.6063,4.6067,4.607,0,0,0,0,0,0,0,4.5644,4.5664,4.5869,4.5812,4.5813,4.58,4.5813,4.5918,4.5945,4.5865,4.5861,4.5877,4.5979,4.6015,4.6027,4.6192,4.6057,4.6065,4.6071,4.6075,4.6481,4.6486,0,0,0,0,0,0,4.5635,4.5657,4.5865,4.5873,4.5719,4.5809,4.5823,4.5875,4.5944,4.595,4.5881,4.5874,4.6001,4.6016,4.6031,4.6212,4.6067,4.6076,4.6081,4.6476,4.6482,4.6487,0,0,0,0,0,0,4.5629,4.5654,4.586,4.5764,4.5789,4.5819,4.5878,4.588,4.5917,4.5956,4.596,4.5913,4.5998,4.6018,4.6142,4.6215,4.608,4.6089,4.647,4.6478,4.6485,4.6574,0,0,0,0,0,0,4.5621,4.5652,4.5709,4.5766,4.5795,4.5969,4.5882,4.5886,4.5933,4.5925,4.5987,4.5993,4.5996,4.6128,4.6151,4.6226,4.6096,4.6463,4.6473,4.6482,4.6564,4.6583,4.66,0,0,0,0,0,4.5611,4.573,4.5713,4.5738,4.5867,4.5973,4.5989,4.599,4.5939,4.5997,4.6022,4.5991,4.6204,4.6141,4.6167,4.6245,4.6459,4.647,4.6482,4.6556,4.658,4.6599,0,0,0,0,0,0,4.5683,4.5737,4.5719,4.5859,4.5912,4.5963,4.6037,4.6015,4.6083,4.6073,4.6072,4.6086,4.6214,4.6242,4.6172,4.6395,4.6323,4.6341,4.6371,4.6394,4.6411,4.6402,4.6104,0,0,0,0,0,4.5715,4.5796,4.5839,4.5959,4.5987,4.6007,4.6053,4.6049,4.6104,4.6126,4.616,4.6214,4.6293,4.6345,4.642,4.6568,4.6581,4.6635,4.6653,4.6667,4.6682,4.6762,4.6786,4.6525,4.6525,4.6525,0,0,4.5782,4.5822,4.5873,4.5975,4.6015,4.6099,4.6026,4.6119,4.6181,4.614,4.6259,4.6286,4.6346,4.6483,4.6544,4.651,4.6757,4.6682,4.6693,4.67,4.6776,4.6801,4.6823,4.6533,4.6531,4.653,0,0,4.5947,4.5986,4.609,4.6131,4.6192,4.6205,4.623,4.6285,4.6301,4.642,4.6391,4.6465,4.6601,4.6645,4.6686,4.6867,4.6841,4.6892,4.6985,4.7062,4.7083,4.7101,4.7165,4.7188,4.6907,4.6907,4.6907,0,4.6023,4.6148,4.6146,4.624,4.6286,4.6252,4.6357,4.6398,4.6481,4.6513,4.6473,4.6642,4.6681,4.6827,4.6871,4.6905,4.6933,4.6885,4.708,4.7098,4.7115,4.7176,4.7201,4.6912,4.6912,4.6911,4.6911,0,4.6238,4.6326,4.6402,4.6482,4.6536,4.6636,4.6649,4.6704,4.6695,4.6712,4.6833,4.6878,4.6961,4.6996,4.6989,4.7141,4.7117,4.7079,4.7007,4.7146,4.7203,4.7227,4.6921,4.6919,4.6917,4.6916,0,0,4.6453,4.653,4.6558,4.6593,4.6658,4.6726,4.6823,4.6904,4.6951,4.7009,4.7091,4.7207,4.7171,4.7217,4.7215,4.7283,4.7423,4.7236,4.7237,4.7269,4.7593,4.7621,4.7648,4.7406,4.7411,4.7414,4.7588,0,4.6623,4.6793,4.6794,4.6951,4.7031,4.7,4.7085,4.7134,4.7153,4.7224,4.7245,4.7326,4.7274,4.7301,4.7367,4.7392,4.7488,4.738,4.7482,4.7486,4.7468,4.7678,4.7709,4.787,4.761,4.7614,4.7617,0,4.6844,4.6908,4.7073,4.7125,4.7159,4.7236,4.7309,4.7377,4.7432,4.7441,4.7492,4.7479,4.7578,4.7504,4.7641,4.7567,4.7609,4.7628,4.7634,4.7643,4.7559,4.7693,4.7922,4.7946,4.7652,4.7649,4.7647,0,4.6983,4.7111,4.7226,4.7257,4.7322,4.7376,4.7405,4.7456,4.7504,4.7568,4.7599,4.7674,4.7716,4.7775,4.7782,4.7727,4.792,4.7846,4.793,4.793,4.7972,4.7969,4.821,4.8,4.8,4.7999,4.7999,0,4.7172,4.7274,4.7289,4.736,4.7473,4.7473,4.7585,4.761,4.7655,4.773,4.7708,4.7779,4.7785,4.7858,4.7865,4.7977,4.7996,4.8006,4.8007,4.8008,4.8007,4.8035,4.8024,4.8006,4.8004,4.8003,4.8002,0,4.7347,4.7361,4.7484,4.7534,4.7549,4.763,4.7673,4.7741,4.7757,4.7853,4.7875,4.7901,4.7985,4.7999,4.8099,4.8103,4.8238,4.8227,4.8219,4.8217,4.83,4.8292,4.8567,4.8603,4.837,4.8373,4.8374,0,4.7466,4.7544,4.7602,4.765,4.7682,4.7761,4.7809,4.7812,4.7863,4.7931,4.7991,4.8073,4.8139,4.8277,4.8304,4.8381,4.8371,4.8463,4.8383,4.8381,4.8372,4.8367,4.8374,4.8478,4.848,4.8482,4.8484,0,4.7677,4.768,4.775,4.7824,4.7882,4.794,4.7994,4.8035,4.8045,4.8104,4.819,4.8241,4.8343,4.8425,4.85,4.8531,4.851,4.8509,4.8532,4.8534,4.8526,4.8531,4.826,4.8503,4.8501,4.85,4.8499,4.8498,4.7828,4.7895,4.7946,4.8025,4.8066,4.8117,4.8183,4.8207,4.8278,4.836,4.8358,4.8452,4.8505,4.8604,4.8639,4.8713,4.8684,4.8718,4.8726,4.8734,4.8742,4.8515,4.8727,4.8727,4.8726,4.8726,4.8726,0,4.8037,4.8068,4.814,4.8217,4.8279,4.8252,4.8311,4.8365,4.8448,4.8499,4.8564,4.8662,4.8742,4.8775,4.8853,4.8906,4.8898,4.8927,4.8922,4.893,4.8764,4.8736,4.8931,4.8931,4.8931,4.8931,4.8931,4.8931,4.8153,4.8265,4.8274,4.8406,4.8436,4.8528,4.8563,4.8611,4.865,4.8761,4.8827,4.8848,4.8892,4.8972,4.9044,4.9052,4.9081,4.9114,4.9117,4.8962,4.8941,4.8922,4.8895,4.912,4.9121,4.9276,4.9278,4.9279]},{"header":{"parameterUnit":"m.s-1","parameterCategory":1,"la1":30.2991,"la2":30.254,"lo1":-89.0895,"lo2":-89.0444,"dy":0.0017,"dx":0.0017,"nx":28,"ny":28,"refTime":"2023-08-11T09:00:00:Z","depth":0,"parameterNumber":3,"parameterNumberName":"V-component_of_WINDS"},"data":[0,0,0,0,0,0,0,0,0,0,0,0,0,0,0,0,0,0,0,0,0,0,0,0,0,0,0,0,0,0,0,0,0,0,0,0,0,0,0,0,0,0,0,0,0,0,0,0,0,0,0,0,0,0,0,0,0,0,-0.3075,-0.3076,0,-0.3124,-0.3125,-0.3125,-0.3155,-0.3155,-0.3155,-0.3155,-0.3207,-0.3208,-0.3209,0,0,0,0,0,0,0,0,0,0,0,0,0,-0.3009,-0.301,-0.3075,-0.3076,-0.3076,-0.3124,-0.3125,-0.3125,-0.3155,-0.3155,-0.3155,-0.3155,-0.3206,-0.3208,-0.3209,0,0,0,0,0,0,0,0,0,0,0,0,0,-0.3046,-0.301,-0.3075,-0.3097,-0.3099,-0.3124,-0.3125,-0.3126,-0.3155,-0.3155,-0.3155,-0.3155,-0.3206,-0.3208,-0.3209,-0.3217,0,0,-0.3215,-0.3216,0,0,0,0,0,0,0,0,-0.3044,-0.3048,-0.3093,-0.3095,-0.3098,-0.3134,-0.312,-0.3156,-0.3155,-0.3134,-0.3155,-0.3155,-0.3182,-0.3186,-0.3195,-0.3219,-0.3221,-0.3215,-0.3216,-0.3217,-0.3218,0,0,0,0,0,0,0,-0.3041,-0.3046,-0.3095,-0.3093,-0.3097,-0.3105,-0.311,-0.3127,-0.3156,-0.3135,-0.3138,-0.3143,-0.3184,-0.3193,-0.3196,-0.3222,-0.3215,-0.3217,-0.3218,-0.3219,-0.3256,-0.3256,0,0,0,0,0,0,-0.3035,-0.3044,-0.3093,-0.3096,-0.3071,-0.3106,-0.3112,-0.3122,-0.3156,-0.3161,-0.3143,-0.3144,-0.319,-0.3194,-0.3198,-0.321,-0.3217,-0.3219,-0.322,-0.3256,-0.3256,-0.3256,0,0,0,0,0,0,-0.3033,-0.3039,-0.3091,-0.3071,-0.3078,-0.3107,-0.3118,-0.3123,-0.3132,-0.3162,-0.3167,-0.3147,-0.319,-0.3196,-0.3212,-0.3212,-0.322,-0.3221,-0.3256,-0.3256,-0.3256,-0.3232,0,0,0,0,0,0,-0.3031,-0.3038,-0.3041,-0.307,-0.3079,-0.3103,-0.3118,-0.3124,-0.3135,-0.3137,-0.3167,-0.3172,-0.3191,-0.3209,-0.3214,-0.3214,-0.3223,-0.3256,-0.3256,-0.3256,-0.3233,-0.3231,-0.3229,0,0,0,0,0,-0.3029,-0.3032,-0.3041,-0.3046,-0.3083,-0.3103,-0.3108,-0.3129,-0.3135,-0.3138,-0.3157,-0.3171,-0.3211,-0.321,-0.3216,-0.3217,-0.3257,-0.3256,-0.3256,-0.3234,-0.3231,-0.3229,0,0,0,0,0,0,-0.3002,-0.3036,-0.3046,-0.3059,-0.3078,-0.3108,-0.3113,-0.3126,-0.3144,-0.3145,-0.3171,-0.3177,-0.3191,-0.3206,-0.3205,-0.3227,-0.3235,-0.3236,-0.3216,-0.3214,-0.3213,-0.3209,-0.3224,0,0,0,0,0,-0.2997,-0.3011,-0.304,-0.3049,-0.3058,-0.3084,-0.3094,-0.3108,-0.3129,-0.3137,-0.3157,-0.3177,-0.3195,-0.3205,-0.3223,-0.3235,-0.3242,-0.3239,-0.3237,-0.3235,-0.3236,-0.3244,-0.3243,-0.3255,-0.3255,-0.3255,0,0,-0.2988,-0.3009,-0.3016,-0.3044,-0.3061,-0.3075,-0.309,-0.3104,-0.3115,-0.3139,-0.3156,-0.3172,-0.3196,-0.321,-0.3218,-0.3223,-0.3234,-0.3235,-0.3233,-0.3235,-0.3244,-0.3242,-0.3241,-0.3255,-0.3255,-0.3255,0,0,-0.2979,-0.2996,-0.3005,-0.3021,-0.3046,-0.3063,-0.3065,-0.3093,-0.3105,-0.3122,-0.3141,-0.3154,-0.3183,-0.32,-0.3212,-0.321,-0.3223,-0.3215,-0.3205,-0.3213,-0.3212,-0.3211,-0.3211,-0.321,-0.3215,-0.3215,-0.3215,0,-0.2965,-0.2986,-0.3008,-0.3021,-0.3034,-0.3056,-0.3066,-0.3081,-0.311,-0.3118,-0.3123,-0.316,-0.3178,-0.3197,-0.3197,-0.3206,-0.321,-0.3211,-0.321,-0.321,-0.321,-0.3209,-0.3209,-0.3214,-0.3214,-0.3214,-0.3214,0,-0.2968,-0.2982,-0.2987,-0.3014,-0.3027,-0.3038,-0.3063,-0.3073,-0.3087,-0.3104,-0.3121,-0.3144,-0.3166,-0.3172,-0.3185,-0.3193,-0.3196,-0.3205,-0.3215,-0.3207,-0.3207,-0.3207,-0.3212,-0.3212,-0.3213,-0.3213,0,0,-0.2943,-0.2982,-0.2984,-0.2996,-0.3025,-0.3037,-0.305,-0.3072,-0.308,-0.31,-0.3112,-0.3136,-0.3145,-0.3159,-0.3175,-0.3182,-0.3179,-0.3191,-0.3192,-0.3188,-0.319,-0.3182,-0.3182,-0.3189,-0.3189,-0.3189,-0.3188,0,-0.2938,-0.2961,-0.2982,-0.2998,-0.3012,-0.3034,-0.3045,-0.3065,-0.3081,-0.3096,-0.3114,-0.3131,-0.3142,-0.315,-0.3158,-0.3178,-0.318,-0.3178,-0.32,-0.3201,-0.3193,-0.3182,-0.3174,-0.3172,-0.3188,-0.3188,-0.3188,0,-0.2935,-0.2953,-0.2971,-0.2999,-0.3006,-0.3015,-0.3037,-0.3051,-0.3074,-0.3085,-0.3101,-0.3117,-0.3133,-0.3141,-0.3163,-0.3161,-0.3171,-0.3183,-0.3183,-0.3186,-0.3194,-0.3185,-0.3172,-0.3172,-0.3189,-0.3189,-0.3189,0,-0.2915,-0.2944,-0.2959,-0.2969,-0.3002,-0.3008,-0.3022,-0.3045,-0.3057,-0.3077,-0.3085,-0.3106,-0.3118,-0.3134,-0.3156,-0.316,-0.3176,-0.3186,-0.3187,-0.3186,-0.3189,-0.3188,-0.3178,-0.3195,-0.3195,-0.3195,-0.3195,0,-0.2908,-0.2918,-0.295,-0.2959,-0.2971,-0.2995,-0.3006,-0.3023,-0.3043,-0.3056,-0.3077,-0.3088,-0.3117,-0.3132,-0.315,-0.3166,-0.3171,-0.3181,-0.3186,-0.3179,-0.3178,-0.3186,-0.3187,-0.3195,-0.3195,-0.3195,-0.3195,0,-0.2888,-0.291,-0.2927,-0.2957,-0.2964,-0.2972,-0.2998,-0.3008,-0.3025,-0.3042,-0.3047,-0.3075,-0.3094,-0.3118,-0.3145,-0.3157,-0.3171,-0.3178,-0.3163,-0.3166,-0.3165,-0.3165,-0.316,-0.3161,-0.3177,-0.3177,-0.3177,0,-0.2881,-0.2889,-0.292,-0.293,-0.2943,-0.2959,-0.2971,-0.2996,-0.3008,-0.3035,-0.3041,-0.3062,-0.308,-0.311,-0.3133,-0.3154,-0.3162,-0.3159,-0.3165,-0.3159,-0.3162,-0.3162,-0.3163,-0.3157,-0.3157,-0.3156,-0.3156,0,-0.2868,-0.2878,-0.2895,-0.2916,-0.293,-0.2947,-0.2966,-0.2973,-0.3001,-0.3014,-0.3034,-0.3047,-0.3075,-0.3096,-0.312,-0.3136,-0.3151,-0.3154,-0.3155,-0.3149,-0.314,-0.3145,-0.3158,-0.3154,-0.3154,-0.3154,-0.3154,-0.3155,-0.2855,-0.2863,-0.2886,-0.2904,-0.292,-0.2937,-0.2948,-0.2967,-0.2984,-0.3008,-0.3021,-0.3041,-0.3065,-0.3099,-0.3114,-0.313,-0.3135,-0.3137,-0.3138,-0.3138,-0.3136,-0.3137,-0.3134,-0.3134,-0.3135,-0.3135,-0.3135,0,-0.2842,-0.2858,-0.2875,-0.29,-0.2914,-0.2927,-0.2948,-0.2959,-0.2976,-0.2997,-0.3014,-0.3037,-0.3058,-0.3082,-0.3105,-0.3113,-0.3121,-0.3118,-0.3118,-0.3121,-0.313,-0.3126,-0.3112,-0.3112,-0.3112,-0.3112,-0.3112,-0.3112,-0.2838,-0.2853,-0.2866,-0.289,-0.2906,-0.2925,-0.2936,-0.2952,-0.2969,-0.2993,-0.301,-0.3026,-0.3049,-0.3073,-0.3093,-0.3099,-0.3107,-0.3102,-0.3111,-0.3119,-0.3121,-0.3122,-0.3119,-0.3104,-0.3104,-0.3101,-0.3101,-0.3101]}]]